User: anonymous   Login
Location: Unspecified
(0.0000°N, 0.0000°E)
Time: 14:50:39
(UTC+00:00)
Language:

DNEPR OBJECT U - Orbit

View from above orbital plane
View from above orbital plane
View from above satellite
View from above satellite

Ground track
Ground track

The orbit data is extracted from the following two-line orbital elements,

1 39434U 13066U   17206.18526542 +.00000979 +00000-0 +77578-4 0  9991
2 39434 097.6496 281.5554 0036471 036.2203 324.1510 15.02400145200531
Epoch (UTC): 25 July 2017 04:26:46
Eccentricity: 0.0036471
inclination: 97.6496°
perigee height: 534 km
apogee height: 585 km
right ascension of ascending node: 281.5554°
argument of perigee: 36.2203°
revolutions per day: 15.02400145
mean anomaly at epoch: 324.1510°
orbit number at epoch: 20053

The dashed part of the orbit path shows where the satellite is in the earth's shadow,  

DLR